EW0765 Weather Reports


Display with metric or nautical units.
time (UTC)temp
F
wind
direction
speed
MPH
gust
MPH
rain 1hr
in
rain 24hr
in
rain mn
in
humidity
%
barometer
mb
20260902191556 92 228 0.0 8.0 0.00 0.00 0.00 60 1013.7
20260902190052 92 223 0.0 6.0 0.00 0.00 0.00 60 1013.9
20260902184559 92 302 0.0 8.0 0.00 0.00 0.00 58 1014.0
20260902183056 92 226 0.0 4.0 0.00 0.00 0.00 58 1014.2
20260902181549 92 228 1.0 7.0 0.00 0.00 0.00 60 1014.4
20260902180045 91 277 2.0 6.0 0.00 0.00 0.00 60 1014.4
20260902174544 91 249 2.0 10.0 0.00 0.00 0.00 59 1014.6
20260902173042 91 262 0.0 6.0 0.00 0.00 0.00 63 1014.9
20260902171541 90 231 0.0 6.0 0.00 0.00 0.00 62 1015.0
20260902170044 90 279 0.0 2.0 0.00 0.00 0.00 63 1015.1
20260902164537 89 257 0.0 4.0 0.00 0.00 0.00 67 1015.2
20260902163036 89 249 0.0 0.0 0.00 0.00 0.00 69 1015.3
20260902161530 87 212 0.0 3.0 0.00 0.00 0.00 72 1015.3
20260902160029 87 246 0.0 4.0 0.00 0.00 0.00 72 1015.5
20260902154529 87 258 0.0 0.0 0.00 0.00 0.00 72 1015.6
20260902153026 86 302 0.0 5.0 0.00 0.00 0.00 73 1015.7
20260902151522 85 190 0.0 4.0 0.00 0.00 0.00 75 1015.7
20260902150021 85 251 0.0 1.0 0.00 0.00 0.00 75 1015.6
20260902144521 85 261 0.0 5.0 0.00 0.00 0.00 75 1015.7
20260902143015 84 263 0.0 5.0 0.00 0.00 0.00 78 1015.5
20260902141512 83 264 0.0 3.0 0.00 0.00 0.00 80 1015.4
20260902140008 82 223 0.0 1.0 0.00 0.00 0.00 82 1015.4
20260902134506 81 256 0.0 3.0 0.00 0.00 0.00 84 1015.3
20260902133002 79 275 0.0 4.0 0.00 0.00 0.00 85 1015.2
20260902131604 78 266 0.0 3.0 0.00 0.00 0.00 88 1015.3
20260902130056 77 120 0.0 0.0 0.00 0.00 0.00 91 1015.3
20260902124554 76 258 0.0 0.0 0.00 0.00 0.00 92 1015.2
20260902123106 75 257 0.0 0.0 0.00 0.00 0.00 92 1015.2
20260902121558 75 255 0.0 0.0 0.00 0.00 0.00 93 1015.2
20260902120104 75 261 0.0 1.0 0.00 0.00 0.00 93 1015.0
20260902114549 74 252 0.0 0.0 0.00 0.00 0.00 93 1014.9
20260902113047 74 261 0.0 0.0 0.00 0.00 0.00 93 1014.7
20260902111555 74 261 0.0 0.0 0.00 0.00 0.00 93 1014.6
20260902110047 74 262 0.0 0.0 0.00 0.00 0.00 93 1014.4
20260902104547 74 262 0.0 0.0 0.00 0.00 0.00 93 1014.4
20260902103047 74 258 0.0 0.0 0.00 0.00 0.00 93 1014.5
20260902101546 74 258 0.0 0.0 0.00 0.00 0.00 93 1014.4
20260902100056 74 258 0.0 0.0 0.00 0.00 0.00 93 1014.3
20260902094545 74 259 0.0 0.0 0.00 0.00 0.00 93 1014.4
20260902093044 74 259 0.0 0.0 0.00 0.00 0.00 93 1014.5
20260902091550 75 259 0.0 0.0 0.00 0.00 0.00 93 1014.6
20260902090044 74 259 0.0 0.0 0.00 0.00 0.00 93 1014.7
20260902084543 74 258 0.0 0.0 0.00 0.00 0.00 93 1014.7
20260902083042 74 258 0.0 0.0 0.00 0.00 0.00 93 1014.7
20260902081541 74 258 0.0 0.0 0.00 0.00 0.00 92 1014.7
20260902080040 73 258 0.0 0.0 0.00 0.00 0.00 92 1014.5
20260902074542 74 259 0.0 0.0 0.00 0.00 0.00 91 1014.4
20260902073038 74 259 0.0 0.0 0.00 0.00 0.00 91 1014.5
20260902071538 74 259 0.0 0.0 0.00 0.00 0.00 91 1014.6
20260902070038 74 259 0.0 0.0 0.00 0.00 0.00 91 1014.7
20260902064537 74 259 0.0 0.0 0.00 0.00 0.00 90 1014.7
20260902063050 74 259 0.0 0.0 0.00 0.00 0.00 90 1014.9
20260902061534 74 259 0.0 0.0 0.00 0.00 0.00 89 1014.9
20260902060033 74 259 0.0 0.0 0.00 0.00 0.00 90 1015.1
20260902054538 74 259 0.0 0.0 0.00 0.00 0.00 89 1014.9
20260902053030 75 258 0.0 0.0 0.00 0.00 0.00 88 1014.8
20260902051529 75 258 0.0 0.0 0.00 0.00 0.00 88 1014.8
20260902050052 75 259 0.0 0.0 0.00 0.00 0.00 87 1014.8
20260902044525 76 259 0.0 0.0 0.00 0.00 0.00 87 1014.7
20260902043030 76 259 0.0 0.0 0.00 0.00 0.00 86 1014.6
20260902041520 76 258 0.0 0.0 0.00 0.00 0.00 86 1014.4
20260902040021 76 259 0.0 0.0 0.00 0.00 0.00 86 1014.2
20260902034522 77 259 0.0 0.0 0.00 0.00 0.00 86 1014.3
20260902033018 77 259 0.0 0.0 0.00 0.00 0.00 86 1014.5
20260902031519 77 258 0.0 0.0 0.00 0.00 0.00 86 1014.5
20260902030018 77 209 0.0 1.0 0.00 0.00 0.00 86 1014.5
20260902024518 77 242 0.0 0.0 0.00 0.00 0.00 84 1014.4
20260902023017 77 242 0.0 0.0 0.00 0.00 0.00 82 1014.4
20260902021516 77 241 0.0 0.0 0.00 0.00 0.00 80 1014.3
20260902020016 78 241 0.0 0.0 0.00 0.00 0.00 79 1014.0
20260902014516 78 241 0.0 0.0 0.00 0.00 0.00 79 1014.2
20260902013015 78 241 0.0 0.0 0.00 0.00 0.00 79 1014.1
20260902011516 79 241 0.0 0.0 0.00 0.00 0.00 78 1014.0
20260902010015 80 242 0.0 0.0 0.00 0.00 0.00 76 1013.7
20260902004514 80 241 0.0 0.0 0.00 0.00 0.00 76 1013.6
20260902003021 81 241 0.0 0.0 0.00 0.00 0.00 75 1013.6
20260902001513 81 240 0.0 0.0 0.00 0.00 0.00 74 1013.6
20260902000013 82 240 0.0 0.0 0.00 0.00 0.00 73 1013.5
20260901234510 83 225 0.0 6.0 0.00 0.00 0.00 72 1013.7
20260901233009 83 293 0.0 4.0 0.00 0.00 0.00 73 1013.9
20260901231510 83 246 0.0 6.0 0.00 0.00 0.00 73 1014.0
20260901230009 84 340 0.0 0.0 0.00 0.00 0.00 71 1014.2
20260901224509 84 288 0.0 3.0 0.00 0.00 0.00 70 1014.4
20260901223008 85 246 0.0 8.0 0.00 0.00 0.00 67 1014.3
20260901221508 86 247 1.0 8.0 0.00 0.00 0.00 65 1014.6
20260901220007 87 294 0.0 13.0 0.00 0.00 0.00 65 1014.4
20260901214507 87 275 1.0 7.0 0.00 0.00 0.00 65 1014.2
20260901213005 88 200 2.0 11.0 0.00 0.00 0.00 64 1014.1
20260901211506 88 238 1.0 7.0 0.00 0.00 0.00 66 1014.1
20260901210005 88 235 1.0 11.0 0.00 0.00 0.00 67 1014.1
20260901204505 88 279 1.0 7.0 0.00 0.00 0.00 67 1014.1
20260901203004 88 265 0.0 5.0 0.00 0.00 0.00 69 1014.1
20260901201503 88 254 1.0 6.0 0.00 0.00 0.00 68 1014.2
20260901200008 88 275 0.0 6.0 0.00 0.00 0.00 68 1014.3
20260901194505 88 158 0.0 7.0 0.00 0.00 0.00 66 1014.2
20260901193000 88 222 1.0 14.0 0.00 0.00 0.00 67 1014.1
20260901191614 88 259 0.0 6.0 0.00 0.00 0.00 67 1014.0